Regional Weather Roundup
Issued by NWS Northern Indiana

Home | Current Version | Previous Version | Text Only | Print | Product List | Glossary On
Versions: 1 2 3 4 5 6 7 8 9 10 11 12 13 14 15 16 17 18 19 20 21 22 23 24 25 26 27 28 29 30 31 32 33 34 35 36 37 38 39 40 41 42 43 44 45 46 47 48 49 50
033
ASUS43 KIWX 101010
RWRIWX

KIWX WEATHER ROUNDUP
NATIONAL WEATHER SERVICE NORTHERN INDIANA
500 AM EST WED FEB 10 2016

NOTE: "FAIR" INDICATES FEW OR NO CLOUDS BELOW 12,000 FEET WITH NO
SIGNIFICANT WEATHER AND/OR OBSTRUCTIONS TO VISIBILITY.

* THESE STATIONS ARE NOT UNDER NWS QUALITY CONTROL. THEY ALSO MAY NOT
  REPORT WEATHER SUCH AS PRECIPITATION OR FOG.

INZ001>027-101100-
NORTHERN INDIANA

CITY           SKY/WX    TMP DP  RH WIND       PRES   REMARKS
VALPARAISO     LGT SNOW  15   9  76 NW15G23   29.92R WCI   0
MICHIGAN CITY* LGT SNOW  19  14  79 W13G22    29.91S WCI   7
LAPORTE*       LGT SNOW  19  17  92 NW10G18   29.89R WCI   7
KNOX*          CLOUDY    16  12  86 W13       29.91R WCI   2
SOUTH BEND     LGT SNOW  18  15  88 NW14      29.86R FOG     WCI   4
GOSHEN         LGT SNOW  19  15  84 W8        29.84R FOG     WCI   9
MONTICELLO*    CLOUDY    14   5  66 W13G18    29.94S WCI   0
LOGANSPORT*    FLURRIES  14   7  73 W9G16     29.93S WCI   2
ROCHESTER*     LGT SNOW  18   9  68 W13       29.89S WCI   4
WARSAW*        LGT SNOW  16  12  86 W13G22    29.85S WCI   2
ANGOLA*        MOCLDY    18  16  93 W5        29.79R WCI  11
FORT WAYNE     LGT SNOW  17  11  77 W21G26    29.85R WCI   0
HUNTINGTON*    LGT SNOW  15   9  77 W18G24    29.87R WCI  -2
PERU/GRISSOM   CLOUDY    12   9  85 W14       29.89S WCI  -3
MARION*        LGT SNOW  14   6  70 W17G23    29.91R WCI  -3

$$
INZ028>050-101100-
CENTRAL INDIANA

CITY           SKY/WX    TMP DP  RH WIND       PRES   REMARKS
LAFAYETTE      CLOUDY    13   7  77 W15       29.97S WCI  -3
KOKOMO*        CLOUDY    12   9  85 W18       29.91S WCI  -5
MUNCIE*        LGT SNOW  15   9  76 W15G22    29.89S WCI   0
INDIANAPOLIS   FLURRIES  13   7  77 W14       29.95S WCI  -2

$$
MIZ043>046-050>051-056>058-064>065-071>073-077>080-101100-
SOUTHWEST LOWER MICHIGAN

CITY           SKY/WX    TMP DP  RH WIND       PRES   REMARKS
BATTLE CREEK   CLOUDY    18  13  80 W9        29.79S WCI   7
BENTON HARBOR  CLOUDY    21  12  68 NW14G24   29.86S HAZE    WCI   8
COLDWATER*     CLOUDY    19  13  80 NW9       29.79R WCI   7
HILLSDALE*     FLURRIES  18  13  80 W14       29.75R WCI   4
HOLLAND        LGT SNOW  20  16  84 NW10G21   29.84R VSB 3/4 WCI   9
GRAND RAPIDS   LGT SNOW  19  14  81 W16       29.80R WCI   4
KALAMAZOO      CLOUDY    19  12  74 NW10      29.81R WCI   7
STURGIS*       LGT SNOW  18  15  88 NW6       29.80S WCI  10
THREE RIVERS*  LGT SNOW  20  16  84 N7        29.82S WCI  11

$$
OHZ001>008-015>018-024>025-101100-
NORTHWEST OHIO

CITY           SKY/WX    TMP DP  RH WIND       PRES   REMARKS
DEFIANCE       CLOUDY    21  14  74 W10       29.81S WCI  10
FINDLAY        FLURRIES  19  13  77 W22       29.79S WCI   2
TOLEDO EXPRESS CLOUDY    21  16  81 W14       29.77R WCI   8
TOLEDO METCALF CLOUDY    22  16  78 SW14      29.78R WCI   9
LIMA           LGT SNOW  17  13  84 W18       29.82R FOG     WCI   1

$$
AND FOR LAKE MICHIGAN COASTAL AND OPEN LAKE BUOY OBSERVATIONS

STATION/POSITION TEMP    WIND        PRES    VSBY  WAVE
                 AIR SEA DIR/SP/G                  HT/PER
                 (F)     (DEG/KT/KT) (MB)    (MI)  (FT/S)
CALUMET HARBOR    13     290/ 13/ 18 1013.8R
MICHIGAN CITY     19     280/ 26/ 30   N/A
BURNS HARBOR      18     310/ 20     1013.5S
SAINT JOSEPH      22     310/ 20/ 26 1012.9R

$$
&&




USA.gov is the U.S. government's official web portal to all federal, state and local government web resources and services.